Location: Unspecified
(37.0350°N, 0.0000°E)
Time: 16:52:54
(UTC+00:00)

Orbcomm-X - Visible Passes

Search period start: 04 April 2026 00:00
Search period end: 14 April 2026 00:00
Orbit: 752 x 762 km, 98.4° (Epoch: 29 March)

Date Brightness Start Highest point End Pass type
(mag) Time Alt. Az. Time Alt. Az. Time Alt. Az.
4 Apr ? 20:44:20 16° NE 20:44:20 16° NE 20:45:56 10° NNE visible
4 Apr ? 22:24:21 16° NW 22:24:21 16° NW 22:25:27 10° NNW visible
5 Apr ? 21:44:34 24° N 21:44:34 24° N 21:46:30 10° N visible
6 Apr ? 21:04:46 22° NNE 21:04:46 22° NNE 21:06:51 10° N visible
6 Apr ? 22:44:47 12° NW 22:44:47 12° NW 22:45:18 10° NW visible
7 Apr ? 20:24:58 13° NE 20:24:58 13° NE 20:26:09 10° NNE visible
7 Apr ? 22:04:59 22° NNW 22:04:59 22° NNW 22:06:48 10° NNW visible
8 Apr ? 21:25:12 27° N 21:25:12 27° N 21:27:31 10° N visible
9 Apr ? 20:45:23 19° NE 20:45:23 19° NE 20:47:30 10° NNE visible
9 Apr ? 22:25:25 19° NW 22:25:25 19° NW 22:26:55 10° NNW visible
10 Apr ? 21:45:37 29° N 21:45:37 29° N 21:48:00 10° NNW visible
11 Apr ? 21:05:49 25° NNE 21:05:49 25° NNE 21:08:24 10° N visible
11 Apr ? 22:45:50 14° NW 22:45:50 14° NW 22:46:46 10° NW visible
12 Apr ? 20:26:01 14° NE 20:26:01 14° NE 20:27:46 10° NNE visible
12 Apr ? 22:06:02 26° NNW 22:06:02 26° NNW 22:08:18 10° NNW visible
13 Apr ? 21:26:14 32° NNE 21:26:14 32° NNE 21:29:02 10° N visible
